Dewpoint
45 44 44 43 43 42 41 41 41 40 39 37 36 36 37 39 37 36 37 44 43 43 43 44 40 35 30 30 30 30 29 28 27 27 27 26 24 23 22 22 21 21 21 21 21 21 21 22 24 25 26 25 24 23 22 21 21 22 23 23 23 23 23 23 22 22 22 22 23
44 44 44 44 43 42 41 41 40 40 39 38 37 38 39 38 36 37 40 42 40 41 42 42 36 32 30 29 30 29 29 26 26 26 26 24 22 22 21 22 21 20 19 19 20 21 21 22 24 25 26 26 25 23 22 21 21 22 22 22 22 23 23 22 22 22 22 22 23
44 44 44 43 43 42 41 41 40 39 39 38 39 39 39 38 37 38 39 35 37 40 41 36 32 30 29 28 28 27 26 25 24 24 24 23 22 22 22 21 21 20 20 19 19 20 21 22 24 25 26 26 24 24 24 24 23 22 21 21 22 23 23 22 22 22 23 23 23
44 44 44 43 43 42 42 41 40 40 39 39 39 39 39 38 38 38 37 36 39 40 38 30 27 26 27 27 27 26 25 25 24 23 23 22 23 22 22 21 21 20 19 19 19 20 21 22 24 25 25 24 23 23 23 24 22 22 22 22 23 22 22 22 22 23 23 24 24
45 44 44 44 44 43 43 42 41 41 40 40 40 40 39 39 39 39 39 40 43 41 35 27 25 25 26 26 25 24 24 25 26 24 22 22 23 22 22 21 21 21 20 20 21 20 20 23 24 25 25 24 23 23 22 22 21 21 22 24 23 23 23 22 23 24 25 25 24
45 45 45 44 44 44 43 43 42 42 42 42 41 40 39 39 40 41 42 43 43 39 33 27 26 26 26 25 24 23 24 24 25 23 21 21 21 21 21 21 20 20 20 21 21 20 20 21 24 25 25 25 21 21 21 21 21 21 21 22 23 24 24 23 24 25 25 25 25
46 46 45 45 44 44 44 43 43 42 42 42 41 40 40 40 42 43 43 43 41 35 30 27 27 26 25 22 22 23 23 23 22 21 21 21 21 20 20 20 19 20 20 20 20 20 20 21 24 25 25 24 23 22 21 21 22 21 21 21 23 24 24 23 25 26 26 25 24
46 46 45 45 45 44 44 43 43 42 41 40 39 39 40 41 42 42 42 41 36 31 27 27 26 24 22 21 21 21 21 21 21 21 21 21 20 19 18 18 18 19 19 19 20 20 21 22 24 24 24 24 24 23 21 20 20 20 20 21 23 24 24 23 24 25 26 25 24
46 46 45 45 45 44 44 43 42 41 40 39 38 38 39 41 40 39 38 35 30 28 26 26 24 22 21 21 20 19 19 19 19 19 19 19 18 17 17 17 17 18 18 18 19 19 20 22 23 23 23 24 23 22 20 19 18 18 20 22 23 25 25 24 24 25 25 25 23
46 45 45 45 45 44 44 43 41 39 38 36 35 36 38 40 38 35 32 30 27 26 26 24 22 21 20 19 19 19 18 17 17 17 17 17 17 17 17 17 17 17 18 18 19 19 20 21 21 20 20 21 20 20 19 19 18 18 20 23 22 23 23 24 24 24 24 24 22
46 45 44 44 44 44 43 41 39 37 35 33 33 33 35 35 33 31 30 28 26 24 23 22 21 19 19 19 18 18 18 17 17 17 16 17 17 16 16 16 16 17 17 18 19 20 20 20 19 18 19 20 19 19 19 19 19 19 19 21 22 21 22 23 23 23 23 23 22
46 45 44 44 43 42 41 39 37 35 32 30 30 30 30 30 28 27 27 25 24 22 21 21 20 19 19 19 18 18 18 17 16 16 16 15 16 16 16 16 16 16 17 18 19 20 19 19 18 18 18 19 19 19 19 19 20 19 19 20 21 21 21 21 21 21 21 22 21
46 45 44 43 42 41 39 38 35 32 30 28 27 26 26 26 26 25 24 22 22 21 21 21 21 20 19 19 18 17 17 16 16 16 16 15 16 16 16 16 16 17 17 18 19 19 19 18 17 17 17 18 19 20 20 20 19 19 19 20 20 20 20 19 19 20 21 21 21
46 45 44 43 41 40 38 36 32 30 28 27 26 27 27 25 24 23 22 21 21 21 21 21 21 21 20 18 18 17 16 16 15 16 16 16 16 16 16 16 17 17 18 18 18 18 18 18 17 17 17 17 18 19 19 19 20 20 20 20 20 19 19 19 19 19 19 20 20
46 45 44 42 40 39 36 33 30 28 27 26 29 30 29 22 22 22 22 21 21 21 21 21 21 21 20 18 17 16 16 15 15 15 16 16 16 16 16 17 17 17 18 17 17 17 17 17 17 17 17 17 17 18 18 19 19 20 20 20 20 20 19 19 19 19 19 18 19
45 44 43 41 39 36 33 30 29 28 27 28 32 32 28 22 22 23 23 22 21 21 21 20 20 19 19 18 17 16 15 15 14 15 15 15 16 16 17 17 17 17 17 17 17 17 17 17 17 17 18 18 18 18 19 19 19 19 19 20 20 20 20 20 20 19 19 19 19
44 43 41 39 36 33 30 28 28 27 28 30 32 30 28 24 24 24 24 21 21 20 19 19 19 19 19 19 17 16 14 14 14 14 14 15 16 16 17 17 17 16 16 15 16 16 17 17 18 18 18 19 19 19 20 20 20 20 20 20 20 20 20 21 21 20 19 19 20
42 40 38 35 31 29 27 27 27 27 28 29 29 28 26 25 25 24 23 21 20 19 18 18 18 18 18 17 17 17 15 14 14 14 15 16 16 16 17 17 16 15 14 14 14 15 16 16 17 18 19 19 20 20 21 21 21 21 21 21 20 20 20 21 20 20 20 19 20
39 37 34 30 27 26 25 26 26 26 26 26 25 24 23 23 22 22 21 20 19 19 18 17 17 17 17 16 17 17 17 15 15 15 16 16 16 16 16 15 15 14 14 14 14 14 15 16 17 17 18 19 20 20 21 21 21 21 21 21 21 21 21 20 20 20 20 20 21
36 33 30 26 25 24 24 24 24 23 23 22 22 21 21 21 21 20 19 18 19 19 18 17 17 17 17 16 16 17 17 17 16 16 16 16 16 15 15 14 14 14 14 14 14 15 15 16 17 17 18 20 20 21 21 21 22 22 22 22 21 21 21 21 20 21 21 21 21
32 29 26 24 24 23 23 22 22 22 21 21 21 21 20 20 19 19 18 19 19 18 17 17 17 17 17 17 17 17 17 18 17 16 16 16 15 15 15 15 14 14 14 14 15 15 16 17 18 20 21 22 22 23 23 23 23 23 23 23 23 22 21 21 21 21 21 21 21
29 26 24 24 24 23 22 22 22 21 21 21 21 20 19 19 18 19 19 20 20 19 19 19 19 18 18 18 18 17 17 18 17 16 16 16 16 16 17 16 14 14 15 16 18 19 21 22 23 24 24 25 25 25 25 25 25 24 24 24 24 23 22 21 21 21 21 21 20
26 24 24 24 23 23 24 24 22 21 21 21 19 19 18 18 18 19 20 20 20 20 20 20 20 20 19 18 18 17 17 17 16 16 16 15 16 16 17 16 15 17 19 22 25 26 26 26 26 26 26 26 25 25 24 24 24 24 23 23 23 23 22 22 21 21 21 21 20
24 24 24 23 23 23 24 24 22 21 20 19 18 18 18 18 18 19 19 19 19 19 19 19 20 20 19 17 17 17 17 16 16 15 15 15 15 16 16 16 18 21 24 26 28 29 29 30 29 28 28 26 26 25 24 24 23 23 23 23 23 23 23 22 22 21 21 21 20
25 25 24 23 23 23 23 23 22 21 19 19 18 18 18 18 18 18 18 18 18 18 18 18 18 18 18 17 17 16 16 15 15 15 15 15 15 16 16 18 21 23 25 27 28 30 31 32 31 30 29 28 27 26 25 25 24 23 23 23 23 23 23 23 23 22 21 21 20
26 25 23 23 23 23 22 21 21 20 19 19 19 18 18 18 18 18 18 18 18 18 18 18 18 18 18 17 16 16 16 16 15 15 15 15 16 17 17 19 21 23 25 26 28 30 31 31 32 31 30 28 27 26 26 26 25 24 24 23 24 24 24 24 23 23 21 20 18
25 24 23 23 22 21 21 20 20 19 19 19 19 18 18 18 18 18 18 18 18 18 18 18 18 20 20 17 17 17 17 18 17 16 15 15 16 17 19 20 22 24 26 27 28 29 30 31 31 31 31 29 28 27 26 26 25 25 24 24 24 24 24 24 24 23 21 19 17
25 23 22 22 21 20 19 19 18 18 18 19 19 19 18 18 18 18 18 18 18 18 18 18 19 19 19 18 17 17 17 18 18 18 17 17 18 19 20 20 21 23 26 27 28 29 30 30 31 31 30 30 28 27 26 26 26 25 24 24 23 23 23 23 22 21 20 18 18
26 25 23 21 20 19 19 18 18 18 18 18 18 18 18 17 17 17 17 17 18 18 19 19 20 20 19 19 19 19 19 19 19 20 20 18 19 20 21 21 23 25 26 27 28 29 30 30 30 30 30 30 30 28 27 26 25 25 24 23 23 23 23 22 21 20 20 19 19
26 24 22 21 20 19 19 18 18 17 18 18 17 17 17 17 17 17 17 17 18 19 20 20 20 20 19 20 20 20 21 21 21 21 20 18 19 19 20 23 24 26 27 27 28 28 29 29 29 30 30 30 30 29 27 26 25 25 24 24 23 23 22 22 21 21 20 20 20
24 22 21 20 19 19 18 17 17 17 17 17 17 17 16 16 17 17 19 20 21 22 22 21 20 20 20 21 21 21 21 22 22 21 19 19 20 21 22 23 25 26 27 27 27 27 28 28 29 29 29 30 30 29 27 26 25 25 24 24 23 23 22 22 21 21 21 21 21
22 21 21 20 18 17 17 17 17 17 17 17 17 17 17 18 20 21 22 22 22 22 21 21 20 20 20 21 21 21 22 22 21 21 21 21 20 21 21 21 24 27 28 27 26 26 27 28 28 29 29 30 30 29 27 26 26 25 24 23 22 22 21 21 21 21 21 21 21
21 20 20 18 17 17 17 17 17 17 17 17 18 19 20 21 23 22 22 22 21 21 20 19 19 19 19 19 20 21 21 21 21 22 22 22 22 21 21 22 24 27 28 27 26 26 26 27 27 28 29 30 30 29 27 26 25 24 23 22 21 21 21 21 21 21 21 20 20
19 18 18 17 17 17 17 17 17 18 18 19 20 20 21 22 22 21 21 21 21 20 19 19 19 19 19 20 20 20 21 21 21 21 21 21 21 21 21 20 22 26 27 26 26 26 26 26 27 28 29 30 29 27 26 25 24 23 22 21 21 21 20 20 20 20 20 19 19
18 17 17 17 17 17 17 18 18 19 20 20 21 22 23 23 22 21 21 21 21 20 19 20 20 20 20 21 21 20 20 19 18 18 19 20 21 21 20 21 24 26 27 26 26 25 26 26 26 27 28 29 28 26 25 24 23 22 21 20 20 19 19 18 18 19 19 20 21
17 17 17 17 18 18 18 19 20 20 21 21 21 22 23 23 22 21 21 21 20 20 19 19 20 20 20 20 19 19 19 17 17 17 17 18 18 19 20 21 24 26 27 26 25 25 25 26 26 27 28 28 27 25 24 23 22 21 21 20 20 20 19 19 18 19 20 21 23
17 17 17 18 19 19 20 20 20 21 21 21 22 23 23 22 21 21 21 20 19 19 19 19 19 19 19 19 18 19 19 18 17 17 17 17 17 17 18 19 21 25 26 26 25 25 25 26 26 27 28 27 26 24 23 22 22 21 21 20 20 19 19 19 19 20 21 22 24
21 21 21 22 22 22 21 21 21 21 21 22 23 23 22 21 20 20 20 20 19 18 18 19 19 20 20 20 19 19 19 19 18 17 16 17 17 17 18 18 19 22 24 25 25 25 25 26 26 27 27 28 26 24 23 22 21 21 21 20 20 19 19 20 21 21 22 22 26
30 29 28 27 26 24 23 22 22 22 22 23 22 21 20 20 19 19 20 19 19 19 19 19 20 21 21 21 19 18 17 18 18 17 17 16 18 20 20 18 19 21 22 23 24 24 25 26 26 27 27 28 25 24 23 22 21 21 20 20 20 19 20 21 21 21 21 22 25
33 31 30 28 26 24 23 22 22 23 23 23 21 20 20 20 20 20 20 20 20 20 20 20 21 21 22 22 20 18 17 17 18 17 17 17 20 22 22 19 19 20 21 22 22 23 24 25 26 26 26 27 25 23 22 22 21 21 20 20 19 20 20 21 21 21 21 21 23
32 30 28 26 24 23 22 22 23 23 23 22 21 21 20 20 20 19 19 19 19 20 20 20 20 21 21 22 21 18 17 17 19 18 18 18 21 23 23 20 19 19 20 21 23 23 23 25 25 26 26 26 25 23 23 22 21 21 20 20 20 21 21 21 21 21 21 21 20